E9109 Weather Reports


Display with metric or nautical units.
time (UTC)temp
F
wind
direction
speed
MPH
gust
MPH
rain 1hr
in
rain 24hr
in
rain mn
in
humidity
%
barometer
mb
20220122093955 35 220 0.0 0.0 0.00 0.00 0.00 91 1035.5
20220122092945 35 220 0.0 0.0 0.00 0.00 0.00 91 1035.4
20220122091922 35 220 0.0 0.0 0.00 0.00 0.00 91 1035.4
20220122090909 36 220 0.0 0.0 0.00 0.00 0.00 91 1035.4
20220122085919 36 220 0.0 0.0 0.00 0.00 0.00 91 1035.3
20220122084854 36 220 0.0 0.0 0.00 0.00 0.00 91 1035.1
20220122083919 36 220 0.0 0.0 0.00 0.00 0.00 91 1035.3
20220122082935 36 220 0.0 0.0 0.00 0.00 0.00 91 1035.3
20220122081918 36 220 0.0 0.0 0.00 0.00 0.00 91 1035.3
20220122080928 36 220 0.0 0.0 0.00 0.00 0.00 91 1035.3
20220122075946 36 256 0.0 0.0 0.00 0.00 0.00 91 1035.2
20220122074941 36 256 0.0 0.0 0.00 0.00 0.00 91 1035.2
20220122073953 36 256 0.0 0.0 0.00 0.00 0.00 91 1035.1
20220122072928 37 256 0.0 0.0 0.00 0.00 0.00 91 1035.1
20220122071953 37 256 0.0 0.0 0.00 0.00 0.00 91 1035.2
20220122070956 37 255 0.0 0.0 0.00 0.00 0.00 91 1035.1
20220122065950 36 268 0.0 0.0 0.00 0.00 0.00 91 1035.1
20220122065012 37 266 0.0 0.0 0.00 0.00 0.00 91 1035.2
20220122064030 37 262 0.0 0.0 0.00 0.00 0.00 91 1035.2
20220122063051 37 262 0.0 1.0 0.00 0.00 0.00 91 1035.1
20220122062101 37 303 0.0 0.0 0.00 0.00 0.00 91 1035.0
20220122061125 37 303 0.0 0.0 0.00 0.01 0.00 91 1035.0
20220122060119 37 303 0.0 0.0 0.00 0.01 0.00 91 1035.1
20220122055110 37 303 0.0 0.0 0.00 0.01 0.00 91 1035.0
20220122054115 37 303 0.0 0.0 0.00 0.01 0.00 91 1035.1
20220122053116 37 302 0.0 1.0 0.00 0.01 0.00 91 1035.0
20220122052105 37 61 0.0 0.0 0.00 0.01 0.00 91 1035.0
20220122051122 37 343 0.0 0.0 0.00 0.01 0.00 91 1035.0
20220122050105 38 340 0.0 0.0 0.00 0.01 0.00 91 1034.9
20220122045108 38 290 0.0 2.0 0.00 0.01 0.00 91 1034.9
20220122044127 38 354 0.0 0.0 0.00 0.01 0.00 91 1035.0
20220122043105 38 310 0.0 0.0 0.00 0.01 0.00 91 1035.1
20220122042120 38 281 0.0 0.0 0.00 0.01 0.00 91 1035.1
20220122041116 38 281 0.0 0.0 0.00 0.01 0.00 91 1035.1
20220122040133 38 317 0.0 0.0 0.00 0.01 0.00 91 1035.1
20220122035116 38 311 0.0 2.0 0.00 0.01 0.00 91 1035.1
20220122034133 38 295 1.0 4.0 0.00 0.01 0.00 91 1035.1
20220122033129 38 293 0.0 3.0 0.00 0.01 0.00 91 1035.1
20220122032105 38 307 0.0 4.0 0.00 0.01 0.00 91 1035.0
20220122031039 38 318 0.0 4.0 0.00 0.01 0.00 91 1035.2
20220122030035 38 297 0.0 2.0 0.00 0.01 0.00 91 1035.3
20220122025039 38 312 0.0 1.0 0.00 0.01 0.00 91 1035.2
20220122024015 38 305 0.0 4.0 0.00 0.01 0.00 91 1035.1
20220122022954 38 304 0.0 4.0 0.00 0.01 0.00 91 1035.3
20220122022003 38 302 0.0 2.0 0.00 0.01 0.00 91 1035.2
20220122021018 38 311 0.0 1.0 0.00 0.01 0.00 91 1035.2
20220122015948 38 300 0.0 0.0 0.00 0.01 0.00 91 1035.3
20220122014921 38 294 0.0 0.0 0.00 0.01 0.00 90 1035.5
20220122013922 39 299 0.0 1.0 0.00 0.01 0.00 90 1035.3
20220122012907 39 280 0.0 3.0 0.00 0.01 0.00 90 1035.5
20220122011846 38 274 0.0 0.0 0.00 0.01 0.00 90 1035.5
20220122010846 39 272 0.0 0.0 0.00 0.01 0.00 89 1035.5
20220122005901 40 283 0.0 0.0 0.00 0.01 0.00 89 1035.5
20220122004853 40 283 0.0 0.0 0.00 0.01 0.00 89 1035.4
20220122003840 41 283 0.0 0.0 0.00 0.01 0.00 88 1035.4
20220122002855 41 290 0.0 2.0 0.00 0.01 0.00 88 1035.5
20220122001831 41 286 0.0 2.0 0.00 0.01 0.00 88 1035.5
20220122000842 42 290 0.0 2.0 0.00 0.01 0.00 87 1035.4
20220121235813 42 288 0.0 0.0 0.00 0.01 0.00 87 1035.5
20220121234804 42 270 0.0 2.0 0.00 0.01 0.00 86 1035.6
20220121233757 42 308 0.0 5.0 0.00 0.01 0.00 86 1035.5
20220121232814 42 282 1.0 5.0 0.00 0.01 0.00 85 1035.5
20220121231811 43 301 0.0 4.0 0.00 0.01 0.00 84 1035.3
20220121230813 44 295 0.0 2.0 0.00 0.01 0.00 83 1035.4
20220121225753 44 250 0.0 3.0 0.00 0.01 0.00 82 1035.6
20220121224746 45 248 0.0 3.0 0.00 0.01 0.00 81 1035.7
20220121223720 45 53 0.0 0.0 0.00 0.01 0.00 81 1035.8
20220121222740 45 239 0.0 4.0 0.00 0.01 0.00 81 1035.7
20220121221757 45 200 1.0 4.0 0.00 0.01 0.00 81 1035.9
20220121220723 46 246 0.0 3.0 0.00 0.01 0.00 80 1036.0
20220121215659 45 275 0.0 2.0 0.00 0.03 0.00 81 1036.0
20220121214632 45 244 0.0 2.0 0.00 0.03 0.00 82 1036.4
20220121213617 44 250 0.0 0.0 0.00 0.03 0.00 83 1036.5
20220121212618 44 226 0.0 0.0 0.00 0.03 0.00 82 1036.6
20220121211637 44 349 0.0 0.0 0.00 0.03 0.00 82 1036.6
20220121210603 45 349 0.0 0.0 0.00 0.03 0.00 81 1036.7
20220121205549 44 349 0.0 0.0 0.00 0.03 0.00 83 1036.7
20220121204537 43 278 0.0 3.0 0.00 0.03 0.00 84 1036.9
20220121203516 42 284 0.0 5.0 0.00 0.03 0.00 84 1037.1
20220121202456 42 274 1.0 5.0 0.00 0.03 0.00 84 1037.2
20220121201444 43 259 1.0 4.0 0.00 0.03 0.00 84 1037.2
20220121200416 42 261 1.0 3.0 0.00 0.03 0.00 84 1037.4
20220121195405 43 271 0.0 4.0 0.00 0.03 0.00 84 1037.7
20220121194423 43 254 1.0 4.0 0.00 0.03 0.00 84 1037.7
20220121193406 42 210 0.0 3.0 0.00 0.03 0.00 85 1037.7
20220121192429 42 222 1.0 3.0 0.00 0.03 0.00 83 1037.7
20220121191427 43 240 0.0 2.0 0.00 0.03 0.00 82 1037.8
20220121190431 44 233 0.0 1.0 0.00 0.03 0.00 82 1037.7
20220121185442 44 96 0.0 1.0 0.00 0.03 0.00 81 1037.8
20220121184448 43 219 0.0 2.0 0.00 0.03 0.00 84 1037.9
20220121183452 41 107 0.0 3.0 0.00 0.03 0.00 86 1037.9
20220121182443 41 108 0.0 1.0 0.00 0.03 0.00 86 1037.8
20220121181411 41 259 0.0 0.0 0.00 0.03 0.00 87 1037.5
20220121180432 40 11 0.0 0.0 0.00 0.03 0.00 86 1037.5
20220121175411 40 135 0.0 1.0 0.00 0.03 0.00 88 1037.3
20220121174404 39 179 0.0 1.0 0.00 0.03 0.00 89 1037.2
20220121173344 39 202 0.0 0.0 0.00 0.03 0.00 90 1037.0
20220121172407 38 202 0.0 0.0 0.00 0.04 0.00 90 1036.8
20220121171333 38 202 0.0 0.0 0.00 0.06 0.00 91 1036.7
20220121170350 36 284 0.0 0.0 0.00 0.06 0.00 91 1037.1
20220121165402 36 284 0.0 0.0 0.00 0.11 0.00 91 1036.2
20220121164404 36 284 0.0 0.0 0.00 0.14 0.00 90 1036.4
20220121163418 36 284 0.0 0.0 0.00 0.17 0.00 90 1036.2
20220121162413 36 284 0.0 0.0 0.00 0.17 0.00 91 1036.1
20220121161403 36 284 0.0 0.0 0.00 0.17 0.00 91 1035.9
20220121160415 35 284 0.0 0.0 0.00 0.17 0.00 91 1035.9
20220121155354 35 283 0.0 0.0 0.00 0.17 0.00 91 1036.0
20220121154353 35 283 0.0 0.0 0.00 0.17 0.00 90 1036.1
20220121153401 35 283 0.0 0.0 0.00 0.18 0.00 90 1035.9
20220121152405 35 283 0.0 0.0 0.00 0.18 0.00 90 1035.6
20220121151347 36 283 0.0 0.0 0.00 0.18 0.00 90 1035.5
20220121150344 36 283 0.0 0.0 0.00 0.18 0.00 88 1035.6
20220121145354 37 283 0.0 0.0 0.00 0.18 0.00 88 1035.7
20220121144401 37 258 0.0 0.0 0.00 0.19 0.00 88 1035.8
20220121143422 37 242 0.0 0.0 0.00 0.19 0.00 87 1035.5
20220121142410 38 242 0.0 0.0 0.00 0.20 0.00 87 1035.3
20220121141408 38 286 0.0 0.0 0.00 0.20 0.00 86 1035.1
20220121140432 39 275 0.0 4.0 0.00 0.20 0.00 88 1035.0
20220121135424 38 6 0.0 3.0 0.00 0.21 0.00 87 1034.7
20220121134417 39 281 0.0 3.0 0.00 0.21 0.00 87 1034.6
20220121133434 39 282 1.0 5.0 0.00 0.21 0.00 87 1034.6
20220121132418 39 246 0.0 6.0 0.00 0.23 0.00 87 1034.7
20220121131402 39 304 1.0 6.0 0.00 0.23 0.00 87 1034.8
20220121130414 39 256 1.0 5.0 0.00 0.23 0.00 87 1034.8
20220121125342 39 266 1.0 5.0 0.00 0.23 0.00 87 1034.9
20220121124338 39 224 0.0 5.0 0.00 0.24 0.00 88 1034.8
20220121123311 39 234 0.0 8.0 0.00 0.24 0.00 87 1034.9
20220121122244 39 236 1.0 8.0 0.00 0.24 0.00 87 1034.8
20220121121219 39 298 1.0 6.0 0.00 0.25 0.00 88 1035.0
20220121120207 39 268 1.0 6.0 0.00 0.25 0.00 88 1035.1
20220121115159 39 263 1.0 6.0 0.00 0.25 0.00 88 1034.8
20220121114143 39 312 1.0 6.0 0.00 0.25 0.00 88 1034.7
20220121113200 39 264 0.0 6.0 0.00 0.25 0.00 87 1034.6
20220121112202 39 236 1.0 6.0 0.00 0.25 0.00 87 1034.6
20220121111213 39 275 0.0 3.0 0.00 0.25 0.00 87 1034.6
20220121110145 40 233 1.0 7.0 0.00 0.25 0.00 87 1034.7
20220121105143 40 295 1.0 5.0 0.00 0.25 0.00 87 1034.4
20220121104134 40 276 2.0 9.0 0.00 0.25 0.00 87 1034.0
20220121103152 40 277 2.0 9.0 0.00 0.26 0.00 87 1033.8
20220121102136 40 273 2.0 7.0 0.00 0.26 0.00 87 1033.7
20220121101141 40 295 1.0 13.0 0.00 0.26 0.00 87 1033.6
20220121100140 40 317 2.0 13.0 0.00 0.26 0.00 87 1033.7
20220121095111 40 285 2.0 10.0 0.00 0.26 0.00 87 1033.5